OpenBCM V1.08-5-g2f4a (Linux)

Packet Radio Mailbox

IZ3LSV

[San Dona' di P. JN]

 Login: GUEST





  
I0OJJ  > KEPS     06.08.25 02:47l 343 Lines 16344 Bytes #139 (0) @ AMSAT
BID : ORB25218.1
Read: GUEST
Subj: 2Line Orbital Elements 25218.AMSAT
Path: IZ3LSV<DB0ERF<DK0WUE<PI8ZTM<PD1NL<PD0LPM<IR0AAB<I0OJJ
Sent: 250806/0025z @:I0OJJ.ITA.EU [Rome] obcm1.08-10-g596e
From: I0OJJ @ I0OJJ.ITA.EU (Gustavo)
To:   KEPS @ AMSAT
X-Info: This message was generated automatically


QST de W1STR

AMSAT Orbital Elements for Amateur Satellites in TLE Format
From Orbital Analysis Office
New England Sci-Tech STEM Education Center
Natick, MA August 06, 2025
To all radio amateurs


These element sets describe the orbits of various satellites 
in use by the amateur radio community. For details see:
www.amsat.org/keplerian-elements-formats/

A daily update of element sets is available at:
www.amsat.org/tle/daily-bulletin.txt
or without bulletin text:
www.amsat.org/tle/dailytle.txt


AO-07
1 07530U 74089B   25217.48294218 -.00000026  00000-0  12556-3 0  9999
2 07530 101.9953 222.3554 0012354  15.5228 139.4680 12.53690588320953
UO-11
1 14781U 84021B   25217.43544046  .00001234  00000-0  13519-3 0  9995
2 14781  97.7587 182.6971 0008738 139.7534 220.4332 14.89525223210109
AO-27
1 22825U 93061C   25217.42081181  .00000081  00000-0  48256-4 0  9998
2 22825  98.7332 279.2498 0007470 311.5630  48.4912 14.30814906661840
FO-29
1 24278U 96046B   25217.23889035  .00000001  00000-0  37203-4 0  9993
2 24278  98.5674 103.6601 0349654 195.6462 163.3649 13.53251137430432
NOAA-15
1 25338U 98030A   25217.53642037  .00000185  00000-0  93488-4 0  9998
2 25338  98.5339 241.2920 0010128 185.8500 174.2564 14.27007208416279
GO-32
1 25397U 98043D   25217.45251450  .00000072  00000-0  51226-4 0  9992
2 25397  98.9748 197.7706 0002233  65.6158 294.5252 14.24327109406384
ISS
1 25544U 98067A   25217.57738833  .00008075  00000-0  14750-3 0  9991
2 25544  51.6349  62.2717 0001595 155.7040 204.4024 15.50349286522825
NO-44
1 26931U 01043C   25217.50827696  .00000109  00000-0  71919-4 0  9990
2 26931  67.0528 340.6472 0006528 276.6504  83.3855 14.31758141245253
SO-50
1 27607U 02058C   25217.51754087  .00000964  00000-0  13664-3 0  9993
2 27607  64.5534  24.7601 0062359 321.7769  37.8923 14.81761533217664
CO-55
1 27844U 03031E   25217.45292328  .00000298  00000-0  14861-3 0  9996
2 27844  98.6771 224.9950 0010195  29.2885 330.8864 14.24033720146735
CO-57
1 27848U 03031J   25217.49829870  .00000253  00000-0  13080-3 0  9995
2 27848  98.6798 225.0020 0010402  45.2339 314.9684 14.23363255146462
RS-22
1 27939U 03042A   25217.62014101  .00001065  00000-0  17618-3 0  9999
2 27939  98.3328  28.4680 0011289 183.1262 249.6784 14.72468616169097
CO-58
1 28895U 05043F   25217.38084159  .00001563  00000-0  26168-3 0  9990
2 28895  98.2567   2.4682 0015532 124.6397 235.6276 14.71177802 55291
CO-65
1 32785U 08021C   25217.59735269  .00005148  00000-0  36766-3 0  9998
2 32785  97.7891 189.2128 0010287  29.4555 330.7249 15.04916291937653
CO-66
1 32791U 08021J   25217.47746678  .00011847  00000-0  55452-3 0  9994
2 32791  97.7307 198.8437 0002816  12.4169 347.7134 15.19896850939133
RS-30
1 32953U 08025A   25217.54203652  .00000026  00000-0  11446-3 0  9998
2 32953  82.5032 191.7549 0017967 282.9652  76.9422 12.43166880780604
NOAA-19
1 33591U 09005A   25217.19084224  .00000056  00000-0  53660-4 0  9997
2 33591  98.9942 282.2045 0013489 199.6482 160.4172 14.13398148849847
SRMSAT
1 37841U 11058D   25217.21991031  .00000397  00000-0  71831-4 0  9994
2 37841  19.9706 171.7918 0011584 328.5636  69.6316 14.11450001713125
ZACUBE-1
1 39417U 13066B   25217.60675884  .00003335  00000-0  28908-3 0  9995
2 39417  97.7817 174.3459 0042912 219.9985 139.8074 14.97096112633441
Delfi-N3xt
1 39428U 13066N   25217.49237630  .00004128  00000-0  41735-3 0  9991
2 39428  97.8309 134.5228 0084038 171.8755 188.3846 14.88944978627540
GOMX-1
1 39430U 13066Q   25217.54730626  .00001643  00000-0  26002-3 0  9992
2 39430  97.6784  72.7048 0132481  10.7599 349.6391 14.67839155623768
LO-74
1 39440U 13066AA  25217.42004340  .00003624  00000-0  36582-3 0  9992
2 39440  97.8504 161.6044 0061363 354.1694   5.8802 14.90318634629906
AO-73
1 39444U 13066AE  25217.41516069  .00005058  00000-0  37401-3 0  9995
2 39444  97.7859 179.5832 0041152 190.6512 169.3845 15.02975444632124
DTUSAT-2
1 40030U 14033W   25217.46691233  .00006334  00000-0  40569-3 0  9992
2 40030  98.0588 192.0746 0007917 218.0033 142.0636 15.08909288604975
EO-80
1 40032U 14033Y   25217.48426990  .00006723  00000-0  42944-3 0  9993
2 40032  98.0466 191.6684 0009148 158.2343 201.9274 15.08977721604953
LILACSAT-2
1 40908U 15049K   25217.54897786  .00010967  00000-0  27599-3 0  9999
2 40908  97.5049 239.3103 0007372 324.7296  35.3461 15.40084874546996
IO-86
1 40931U 15052B   25151.18580175  .00001241  00000-0  78118-4 0  9996
2 40931   6.0006  24.0987 0012733 338.8432  21.1169 14.78805930523047
Horyu-4
1 41340U 16012D   25217.39445224  .00023526  00000-0  58394-3 0  9992
2 41340  30.9967 109.2561 0007641 295.9395  64.0463 15.39081116521547
Lapan A3
1 41603U 16040E   25217.59560050  .00003619  00000-0  12606-3 0  9999
2 41603  97.1386 219.9812 0012702  70.2491 290.0119 15.30203477506507
CAS-2T
1 41847U 16066G   25217.44973180  .00000749  00000-0  11544-3 0  9994
2 41847  98.4178 291.4098 0345680   6.6502 353.9104 14.43635674459221
CAS-4B
1 42759U 17034B   25217.57919757  .00090790  00000-0  67750-3 0  9992
2 42759  43.0057 340.2994 0022867 328.9950  30.9568 15.71373839451547
CAS-4A
1 42761U 17034D   25217.55622418  .00100281  00000-0  68696-3 0  9995
2 42761  43.0093 336.8306 0023814 333.6354  26.3302 15.73304240451561
TechnoSat
1 42829U 17042E   25217.54307685  .00003743  00000-0  28874-3 0  9993
2 42829  97.3942  23.5295 0017827  87.6968 272.6298 15.02037005439270
AO-91
1 43017U 17073E   25217.56694088  .00007939  00000-0  40160-3 0  9998
2 43017  97.5179  86.9027 0169114 332.9787  26.2709 15.05623912417785
S-Net D
1 43186U 18014G   25217.27902366  .00005064  00000-0  29601-3 0  9994
2 43186  97.5563 119.6072 0010005  39.5537 320.6422 15.12290726410945
S-Net B
1 43187U 18014H   25217.54983819  .00004962  00000-0  29026-3 0  9994
2 43187  97.5568 119.8498 0010520  33.8654 326.3246 15.12272718410986
S-Net A
1 43188U 18014J   25217.27921598  .00005095  00000-0  29770-3 0  9995
2 43188  97.5575 119.7394 0010465  35.4546 324.7378 15.12296408410941
S-Net C
1 43189U 18014K   25217.28771438  .00004885  00000-0  28574-3 0  9990
2 43189  97.5593 119.7716 0011763  27.3503 332.8344 15.12266825409496
Ten-Koh
1 43677U 18084G   25217.47181880  .00002113  00000-0  17142-3 0  9997
2 43677  98.0839  31.9795 0008883  80.1627 280.0598 15.00800369368776
PO-101
1 43678U 18084H   25217.54973054  .00001736  00000-0  15028-3 0  9999
2 43678  98.1053  35.8656 0008570  96.6627 263.5570 14.98544433368915
QO-100
1 43700U 18090A   25217.54978220  .00000152  00000-0  00000-0 0  9994
2 43700   0.0057 261.2245 0001270 233.9201  42.9340  1.00273977 24510
MinXSS-2
1 43758U 18099A   25217.49245368  .00014271  00000-0  53590-3 0  9992
2 43758  97.4992 283.7603 0010047 319.2118  40.8367 15.27258862365654
AO-95
1 43770U 18099N   25217.15350201  .00008222  00000-0  40570-3 0  9995
2 43770  97.4885 274.6330 0010660  24.6252 335.5489 15.18112187365133
RANGE-A
1 43773U 18099R   25217.55026134  .00004546  00000-0  28689-3 0  9999
2 43773  97.4450 264.3033 0010979   4.3754 355.7569 15.09535898364810
MOVE-II
1 43780U 18099Y   25194.80194206  .15913345  26116-5  37118-3 0  9995
2 43780  97.4526 273.8800 0018736 270.1080  89.8075 16.44566529363241
SNUSat 2
1 43782U 18099AA  25217.14575129  .00006345  00000-0  33983-3 0  9999
2 43782  97.4565 270.9097 0010554 323.7287  36.3228 15.15313204365062
SnugLite
1 43784U 18099AC  25217.10531825  .00008240  00000-0  40323-3 0  9994
2 43784  97.4378 270.5507 0002317 342.6148  17.5007 15.18442506365216
ITASat 1
1 43786U 18099AE  25217.54634850  .00005629  00000-0  31683-3 0  9993
2 43786  97.4534 270.6415 0014236  16.5734 343.5960 15.13550571365073
EAGLET 1
1 43790U 18099AJ  25217.56833506  .00004202  00000-0  26594-3 0  9990
2 43790  97.4728 270.4254 0011722   1.3510 358.7749 15.09463536364669
ESEO
1 43792U 18099AL  25217.53491047  .00001965  00000-0  15097-3 0  9998
2 43792  97.4451 262.8838 0011390 333.0435  27.0198 15.02799187364378
CSIM
1 43793U 18099AM  25217.25768892  .01342257  12301-2  13610-2 0  9993
2 43793  97.4682 300.4169 0015458 276.8463  83.1061 16.10973433366625
JO-97
1 43803U 18099AX  25217.14889973  .00009962  00000-0  43983-3 0  9997
2 43803  97.4630 275.7485 0005853 313.5188  46.5561 15.21931372365372
Suomi 100
1 43804U 18099AY  25217.12568430  .00008672  00000-0  41329-3 0  9997
2 43804  97.4694 274.8540 0010742 315.1409  44.8956 15.19303644365283
ISAT
1 43879U 18111D   25217.56021241  .00019167  00000-0  62460-3 0  9996
2 43879  97.5907 133.2745 0008079  14.8151 345.3325 15.31840701362410
UWE-4
1 43880U 18111E   25217.30495805  .00015583  00000-0  58288-3 0  9992
2 43880  97.5853 131.0773 0011886  22.6840 337.4922 15.27351755362282
Sparrow
1 43881U 18111F   25217.49421795  .00020822  00000-0  65009-3 0  9991
2 43881  97.6060 136.3137 0008074  54.7701 305.4295 15.33195747362500
Prox-1
1 44339U 19036A   25217.23718492  .00010637  00000-0  13098-2 0  9995
2 44339  23.9971  49.3571 0007834 358.8630   1.1849 14.80942563326422
SONATE
1 44400U 19038Q   25185.47540524  .09032085  27445-5  31847-3 0  9995
2 44400  97.6609 216.4776 0012462 246.7970 113.2018 16.43248376333575
Taurus 1
1 44530U 19059C   25217.57673355  .00004955  00000-0  90473-3 0  9997
2 44530  98.6118 359.7138 0009017 212.0443 148.0212 14.66411112312292
Duchifat 3
1 44854U 19089C   25217.54963792  .00052083  00000-0  85823-3 0  9991
2 44854  36.9423 351.7748 0005170  48.4204 311.6997 15.51275850311857
TO-108
1 44881U 19093C   25217.53973641  .00000842  00000-0  10302-3 0  9995
2 44881  97.7900 291.9945 0014803  48.9572 311.2920 14.85700272304538
